Weather History for Duluth Sky Harbor, MN

Change the Weather History Date:

Sunday, December 1, 2013

  Actual Average Record
Temperature  
Mean Temperature 30 °F -  
Max Temperature 32 °F 29 °F 60 °F (1962)
Min Temperature 28 °F 14 °F -15 °F (1976)
Degree Days  
Heating Degree Days 35    
Moisture  
Dew Point 23 °F    
Average Humidity 77    
Maximum Humidity 86    
Minimum Humidity 69    
Precipitation  
Precipitation 0.00 in - - ()
Sea Level Pressure  
Sea Level Pressure 30.10 in    
Wind  
Wind Speed 5 mph (West)    
Max Wind Speed 10 mph    
Max Gust Speed -    
Visibility 10 miles    
Events      
Averages and records for this station are not official NWS values.
T = Trace of Precipitation, MM = Missing Value Source: NWS Daily Summary

Daily Weather History Graph

Daily Weather History Graph

Search for Another Location

Airport:

Trip Planner

Search our weather history database for the weather conditions in past years. The results will help you decide how hot, cold, wet, or windy it might be!

Date:

Astronomy

Dec. 01, 2013 Rise Set
Actual Time 7:32 AM CST 4:21 PM CST
Civil Twilight 6:58 AM CST 4:56 PM CST
Nautical Twilight 6:20 AM CST 5:34 PM CST
Astronomical Twilight 5:43 AM CST 6:10 PM CST
Moon 5:46 AM CST (12/1) 3:36 PM CST (12/1)
Length of Visible Light 9h 58m
Length of Day
8h 49m
Waning Crescent, 2% of the Moon is Illuminated
Dec 1
Waning Crescent
Dec 2
New
Dec 9
First Quarter
Dec 17
Full
Dec 25
Last Quarter

Hourly Weather History & Observations

Time (CST) Temp. Windchill Dew Point Humidity Pressure Visibility Wind Dir Wind Speed Gust Speed Precip Events Conditions
12:13 AM 32.0 °F 24.2 °F 24.8 °F 75% 30.17 in 10.0 mi NNW 9.2 mph - N/A   Overcast
12:33 AM 30.2 °F 23.4 °F 24.8 °F 80% 30.17 in 10.0 mi NNW 6.9 mph - N/A   Overcast
12:54 AM 30.2 °F 23.4 °F 24.8 °F 80% 30.17 in 10.0 mi NNW 6.9 mph - N/A   Overcast
1:13 AM 30.2 °F 24.3 °F 24.8 °F 80% 30.17 in 10.0 mi North 5.8 mph - N/A   Overcast
1:33 AM 30.2 °F 24.3 °F 24.8 °F 80% 30.17 in 10.0 mi North 5.8 mph - N/A   Overcast
1:54 AM 30.2 °F 24.3 °F 24.8 °F 80% 30.18 in 10.0 mi NNW 5.8 mph - N/A   Overcast
2:13 AM 30.2 °F 26.7 °F 24.8 °F 80% 30.18 in 10.0 mi NW 3.5 mph - N/A   Overcast
2:33 AM 30.2 °F 25.4 °F 24.8 °F 80% 30.18 in 10.0 mi NW 4.6 mph - N/A   Overcast
2:53 AM 30.2 °F 25.4 °F 24.8 °F 80% 30.18 in 10.0 mi WNW 4.6 mph - N/A   Overcast
3:13 AM 30.2 °F 25.4 °F 24.8 °F 80% 30.18 in 10.0 mi WNW 4.6 mph - N/A   Overcast
3:33 AM 30.2 °F 25.4 °F 24.8 °F 80% 30.17 in 10.0 mi WNW 4.6 mph - N/A   Overcast
3:53 AM 30.2 °F 25.4 °F 24.8 °F 80% 30.17 in 10.0 mi WNW 4.6 mph - N/A   Overcast
4:14 AM 30.2 °F 25.4 °F 24.8 °F 80% 30.17 in 10.0 mi West 4.6 mph - N/A   Overcast
4:34 AM 30.2 °F 25.4 °F 24.8 °F 80% 30.17 in 10.0 mi West 4.6 mph - N/A   Overcast
4:53 AM 30.2 °F 24.3 °F 24.8 °F 80% 30.18 in 10.0 mi West 5.8 mph - N/A   Overcast
5:14 AM 30.2 °F 24.3 °F 24.8 °F 80% 30.18 in 10.0 mi West 5.8 mph - N/A   Overcast
5:34 AM 30.2 °F 26.7 °F 24.8 °F 80% 30.17 in 10.0 mi West 3.5 mph - N/A   Overcast
5:53 AM 30.2 °F - 24.8 °F 80% 30.17 in 10.0 mi Calm Calm - N/A   Overcast
6:14 AM 30.2 °F - 24.8 °F 80% 30.17 in 10.0 mi Calm Calm - N/A   Overcast
6:33 AM 30.2 °F - 24.8 °F 80% 30.17 in 10.0 mi Calm Calm - N/A   Overcast
6:53 AM 30.2 °F - 24.8 °F 80% 30.17 in 10.0 mi Calm Calm - N/A   Overcast
7:14 AM 30.2 °F - 24.8 °F 80% 30.17 in 10.0 mi Calm Calm - N/A   Overcast
7:33 AM 30.2 °F - 24.8 °F 80% 30.17 in 10.0 mi Calm Calm - N/A   Overcast
7:54 AM 30.2 °F - 24.8 °F 80% 30.17 in 10.0 mi Calm Calm - N/A   Overcast
8:13 AM 28.4 °F - 24.8 °F 86% 30.17 in 10.0 mi Calm Calm - N/A   Overcast
8:33 AM 30.2 °F - 24.8 °F 80% 30.18 in 10.0 mi Calm Calm - N/A   Overcast
8:54 AM 30.2 °F - 24.8 °F 80% 30.18 in 10.0 mi Calm Calm - N/A   Overcast
9:13 AM 30.2 °F - 24.8 °F 80% 30.18 in 10.0 mi Calm Calm - N/A   Overcast
9:33 AM 30.2 °F - 24.8 °F 80% 30.17 in 10.0 mi Calm Calm - N/A   Overcast
9:54 AM 30.2 °F - 24.8 °F 80% 30.18 in 10.0 mi Calm Calm - N/A   Overcast
10:13 AM 30.2 °F - 24.8 °F 80% 30.17 in 10.0 mi Calm Calm - N/A   Overcast
10:33 AM 30.2 °F - 23.0 °F 75% 30.17 in 10.0 mi Calm Calm - N/A   Overcast
10:54 AM 30.2 °F - 23.0 °F 75% 30.16 in 10.0 mi Calm Calm - N/A   Overcast
11:13 AM 30.2 °F - 23.0 °F 75% 30.15 in 10.0 mi Calm Calm - N/A   Overcast
11:33 AM 30.2 °F - 24.8 °F 80% 30.14 in 10.0 mi Calm Calm - N/A   Overcast
11:53 AM 30.2 °F - 23.0 °F 75% 30.13 in 10.0 mi Calm Calm - N/A   Overcast
12:14 PM 30.2 °F - 23.0 °F 75% 30.12 in 10.0 mi Calm Calm - N/A   Overcast
12:33 PM 30.2 °F - 23.0 °F 75% 30.12 in 10.0 mi Calm Calm - N/A   Overcast
12:53 PM 30.2 °F - 24.8 °F 80% 30.11 in 10.0 mi Calm Calm - N/A   Overcast
1:14 PM 30.2 °F 21.9 °F 24.8 °F 80% 30.10 in 10.0 mi WSW 9.2 mph - N/A   Overcast
1:33 PM 30.2 °F 21.3 °F 23.0 °F 75% 30.09 in 10.0 mi WSW 10.4 mph - N/A   Overcast
1:53 PM 30.2 °F 21.9 °F 24.8 °F 80% 30.08 in 10.0 mi WSW 9.2 mph - N/A   Overcast
2:14 PM 30.2 °F 21.3 °F 23.0 °F 75% 30.07 in 10.0 mi WSW 10.4 mph - N/A   Overcast
2:33 PM 30.2 °F 21.3 °F 23.0 °F 75% 30.06 in 10.0 mi WSW 10.4 mph - N/A   Overcast
2:53 PM 30.2 °F 22.6 °F 23.0 °F 75% 30.06 in 10.0 mi SW 8.1 mph - N/A   Overcast
3:14 PM 30.2 °F 22.6 °F 23.0 °F 75% 30.06 in 10.0 mi WSW 8.1 mph - N/A   Overcast
3:33 PM 30.2 °F 22.6 °F 23.0 °F 75% 30.06 in 10.0 mi SSW 8.1 mph - N/A   Overcast
3:53 PM 30.2 °F 21.9 °F 23.0 °F 75% 30.05 in 10.0 mi SSW 9.2 mph - N/A   Overcast
4:13 PM 30.2 °F 24.3 °F 23.0 °F 75% 30.05 in 10.0 mi SW 5.8 mph - N/A   Overcast
4:33 PM 30.2 °F 23.4 °F 23.0 °F 75% 30.05 in 10.0 mi SW 6.9 mph - N/A   Overcast
4:54 PM 30.2 °F 25.4 °F 23.0 °F 75% 30.04 in 10.0 mi SW 4.6 mph - N/A   Overcast
5:13 PM 30.2 °F 25.4 °F 23.0 °F 75% 30.04 in 10.0 mi SW 4.6 mph - N/A   Overcast
5:33 PM 30.2 °F 24.3 °F 23.0 °F 75% 30.04 in 10.0 mi SW 5.8 mph - N/A   Overcast
5:54 PM 30.2 °F 25.4 °F 23.0 °F 75% 30.04 in 10.0 mi WSW 4.6 mph - N/A   Overcast
6:13 PM 30.2 °F 24.3 °F 23.0 °F 75% 30.03 in 10.0 mi WSW 5.8 mph - N/A   Overcast
6:34 PM 30.2 °F 23.4 °F 21.2 °F 69% 30.03 in 10.0 mi West 6.9 mph - N/A   Overcast
6:53 PM 30.2 °F 23.4 °F 23.0 °F 75% 30.03 in 10.0 mi West 6.9 mph - N/A   Overcast
7:13 PM 28.4 °F 23.3 °F 23.0 °F 80% 30.02 in 10.0 mi West 4.6 mph - N/A   Overcast
7:34 PM 28.4 °F 21.2 °F 21.2 °F 74% 30.02 in 10.0 mi West 6.9 mph - N/A   Overcast
7:53 PM 28.4 °F 23.3 °F 21.2 °F 74% 30.01 in 10.0 mi West 4.6 mph - N/A   Overcast
8:13 PM 28.4 °F 23.3 °F 21.2 °F 74% 30.01 in 10.0 mi West 4.6 mph - N/A   Overcast
8:34 PM 28.4 °F 23.3 °F 21.2 °F 74% 30.00 in 10.0 mi West 4.6 mph - N/A   Overcast
8:53 PM 28.4 °F 22.2 °F 21.2 °F 74% 30.00 in 10.0 mi West 5.8 mph - N/A   Overcast
9:14 PM 28.4 °F 22.2 °F 21.2 °F 74% 30.00 in 10.0 mi West 5.8 mph - N/A   Overcast
9:33 PM 28.4 °F 20.4 °F 21.2 °F 74% 30.00 in 10.0 mi West 8.1 mph - N/A   Overcast
9:53 PM 28.4 °F 20.4 °F 21.2 °F 74% 29.99 in 10.0 mi West 8.1 mph - N/A   Overcast
10:14 PM 28.4 °F 21.2 °F 21.2 °F 74% 29.98 in 10.0 mi WNW 6.9 mph - N/A   Overcast
10:33 PM 28.4 °F 23.3 °F 21.2 °F 74% 29.98 in 10.0 mi WNW 4.6 mph - N/A   Overcast
10:53 PM 28.4 °F 23.3 °F 21.2 °F 74% 29.97 in 10.0 mi WNW 4.6 mph - N/A   Overcast
11:13 PM 28.4 °F 23.3 °F 21.2 °F 74% 29.97 in 10.0 mi NW 4.6 mph - N/A   Overcast
11:33 PM 28.4 °F - 21.2 °F 74% 29.97 in 10.0 mi Calm Calm - N/A   Overcast
11:53 PM 28.4 °F - 21.2 °F 74% 29.96 in 10.0 mi Calm Calm - N/A   Overcast